Wind_Speed
12 12 11 10 10 10 11 12 13 14 14 14 15 15 15 16 16 16 16 16 16 15 15 15 15 15 15 15 14 13 14 13 12 12 12 11 11 11 10 9 9 9 9 8
13 12 11 11 10 10 12 12 13 13 13 13 14 15 15 15 15 15 16 16 15 15 15 14 14 15 15 15 14 14 14 14 13 13 12 11 11 10 11 11 10 9 9 9
13 12 12 12 12 12 12 13 13 12 12 13 14 15 14 14 14 15 15 15 15 15 14 14 13 14 14 15 15 14 14 14 14 13 12 12 12 11 11 11 11 10 10 10
13 13 14 14 13 13 13 13 13 13 13 13 14 14 15 14 15 15 15 15 15 15 15 14 14 13 13 13 14 14 14 15 15 14 14 13 13 13 13 12 12 12 12 11
14 14 15 14 14 13 13 13 13 13 13 13 14 15 14 15 15 14 14 14 14 15 15 15 14 14 14 14 14 14 14 14 14 14 14 14 14 13 13 12 12 12 12 11
14 14 15 14 14 14 13 12 13 13 14 14 14 15 15 14 15 14 14 14 15 15 16 15 14 14 14 15 14 14 14 14 14 14 14 14 14 14 13 13 12 12 12 12
15 15 14 14 14 15 13 12 12 12 13 15 14 16 15 15 15 15 14 14 15 16 16 16 15 15 14 15 14 14 15 15 14 14 14 14 13 13 13 13 12 12 11 11
15 15 15 14 14 15 14 13 13 13 13 14 15 16 15 15 15 16 15 15 15 16 17 17 16 16 16 15 15 15 15 15 14 14 15 14 13 13 13 13 12 13 12 12
15 16 15 15 15 15 14 14 14 14 14 14 16 16 16 16 16 16 15 15 16 15 16 16 16 17 16 15 15 15 15 15 14 14 14 14 13 13 13 12 12 12 12 12
16 17 15 15 16 16 15 14 14 15 14 15 16 17 17 17 16 16 16 14 15 15 16 16 16 16 16 16 15 15 15 14 14 14 14 14 14 14 13 13 12 11 11 12
16 16 16 15 15 15 15 15 15 15 15 16 17 18 17 17 17 17 16 15 15 15 15 16 17 16 16 16 15 15 15 15 14 14 14 14 14 14 13 13 12 12 12 12
16 16 16 16 16 16 16 16 16 16 16 15 17 17 16 17 17 17 16 16 16 16 16 16 16 16 16 16 15 15 15 15 14 14 14 14 14 14 13 13 13 13 12 12
16 16 16 16 15 16 16 16 16 17 17 15 16 17 16 17 17 16 16 16 16 16 15 16 16 16 16 15 15 15 15 16 15 15 15 14 14 14 13 14 13 13 13 13
17 17 17 17 16 16 17 17 17 18 18 17 17 17 17 16 17 16 16 16 16 15 15 15 16 16 16 15 15 16 16 16 16 15 15 14 14 14 13 14 14 14 14 13
19 19 19 20 19 19 19 19 17 18 18 19 18 18 18 17 16 16 16 15 15 15 16 16 15 16 16 16 16 15 16 16 16 16 15 15 15 15 14 14 14 13 13 13
20 20 19 20 20 19 20 19 18 17 18 18 19 18 17 16 15 15 15 15 14 14 15 16 16 16 16 16 16 16 16 16 16 16 16 15 15 15 15 15 14 14 14 13
21 21 21 20 19 21 21 19 19 18 18 19 19 17 16 17 16 15 14 15 15 14 14 15 15 16 16 16 16 16 16 17 16 16 16 16 16 16 16 15 15 15 14 14
21 21 21 21 20 21 20 18 19 19 18 18 19 18 17 17 16 15 15 16 16 15 14 14 15 15 16 16 16 17 17 17 17 16 16 16 17 17 16 16 16 15 15 15
23 22 22 22 22 21 19 18 17 18 17 17 18 16 17 17 17 16 16 17 17 16 15 15 14 14 15 15 15 15 16 17 17 17 16 16 17 17 17 16 16 16 16 16
23 22 22 22 22 22 19 18 16 17 18 16 16 16 16 17 17 16 15 16 17 17 16 15 14 14 14 15 15 15 16 16 17 17 16 17 17 17 17 17 17 17 17 18
22 22 23 22 23 21 19 19 17 18 17 16 17 16 15 15 15 15 15 15 16 16 16 15 15 14 15 15 16 16 16 16 16 16 17 17 18 18 18 18 18 18 18 18
24 23 23 23 23 21 19 19 19 18 17 17 17 17 16 15 15 15 14 14 15 15 15 15 15 15 15 15 15 16 17 17 17 17 17 17 17 18 18 18 17 17 18 18
26 25 24 23 23 21 20 20 19 18 18 18 17 17 17 17 16 15 15 14 14 14 14 14 15 15 15 15 15 15 16 17 17 17 17 17 17 17 18 18 17 17 17 17
27 26 25 24 23 23 21 20 20 20 20 20 19 19 18 18 17 16 16 15 14 13 14 14 14 14 15 15 15 15 15 16 17 17 17 17 17 17 17 18 17 17 17 17
26 27 27 26 25 24 22 21 21 22 22 21 21 21 20 18 18 18 17 16 15 15 15 14 13 13 14 15 15 15 16 16 16 17 17 17 17 17 18 18 18 18 18 17
28 27 27 27 26 25 24 22 22 22 22 22 22 22 21 20 20 19 18 17 16 15 15 15 15 14 13 14 15 15 15 16 16 17 17 17 18 18 19 19 19 19 19 19
Wind_Direction
262 262 267 268 265 263 265 264 264 263 261 258 257 255 257 261 259 259 260 258 260 255 255 256 255 254 254 250 247 248 251 252 250 252 250 250 251 252 255 259 263 265 268 273
258 260 263 262 259 258 258 260 264 264 263 261 259 258 261 262 263 263 262 261 258 254 253 254 255 255 255 255 252 249 250 251 250 249 248 249 251 256 257 259 259 259 263 269
258 259 258 256 254 256 258 258 261 264 263 263 264 264 264 265 264 264 263 261 257 255 257 258 258 257 256 257 256 253 250 248 249 249 250 252 253 254 256 257 259 258 260 266
258 255 255 255 254 255 256 257 259 261 262 264 266 267 269 269 269 266 264 261 258 257 256 256 256 256 256 258 261 261 257 251 253 250 252 253 253 255 255 255 256 258 262 265
258 257 256 255 255 256 256 258 257 258 259 261 265 268 267 269 271 268 266 263 258 256 257 258 253 255 255 258 261 260 258 256 253 253 253 253 253 253 255 255 258 262 263 263
259 256 257 256 254 253 254 255 257 258 258 259 262 265 265 267 276 274 270 267 262 258 257 258 256 255 256 258 258 255 257 258 256 256 253 253 253 253 254 256 261 264 263 262
258 258 256 255 255 252 250 253 256 259 260 262 261 262 265 267 273 275 273 269 265 262 257 256 255 254 255 256 254 253 255 257 256 256 255 252 255 256 256 259 260 262 261 260
259 260 260 256 255 255 251 253 254 255 256 260 259 264 268 269 271 274 273 270 265 261 259 257 256 255 255 255 252 252 254 255 253 255 257 254 256 256 256 255 259 261 261 260
258 257 259 257 255 254 251 249 251 254 256 259 261 265 269 270 271 274 272 269 266 262 260 258 255 254 253 252 251 250 250 253 255 254 253 252 257 259 257 255 257 259 261 260
256 256 254 255 254 254 251 248 248 249 250 254 260 263 268 273 276 273 273 270 265 262 260 258 257 254 253 249 249 247 249 254 256 255 255 252 254 256 257 258 258 259 263 261
255 256 255 254 254 256 254 250 251 253 252 253 259 263 267 274 277 274 271 269 263 263 263 260 256 253 250 248 248 247 249 251 252 255 252 251 249 253 259 256 254 257 260 261
254 252 255 256 254 254 251 249 250 254 254 254 262 266 270 273 275 273 269 266 264 264 262 259 256 251 249 248 249 250 249 250 252 253 252 251 250 253 255 253 252 256 261 263
253 253 254 254 253 254 254 252 253 253 254 255 260 267 269 271 272 273 270 264 264 264 260 256 256 252 248 248 249 250 248 250 252 252 252 252 252 251 248 249 252 256 258 260
252 251 252 255 255 254 255 256 254 253 252 255 259 264 268 269 268 269 269 265 262 261 256 254 253 250 251 251 253 251 249 249 251 251 250 250 251 252 248 247 251 255 257 257
250 249 250 253 252 251 255 255 256 257 255 253 254 258 264 267 267 268 267 263 258 256 256 257 253 251 250 251 252 250 248 248 250 249 249 249 251 253 254 253 254 255 256 258
248 250 251 254 253 255 258 256 255 259 257 254 253 256 261 262 262 265 265 261 257 256 258 258 257 253 251 251 251 250 248 249 249 248 249 249 251 254 256 253 252 254 257 258
249 249 251 254 254 255 257 257 258 260 260 255 252 251 255 254 257 259 260 260 259 258 258 260 258 254 254 254 252 251 249 248 247 248 249 251 252 253 254 252 251 254 257 259
250 252 253 252 253 255 258 259 260 260 257 255 255 252 251 253 255 256 258 258 255 257 258 258 256 254 254 254 253 250 246 245 247 248 250 252 251 250 250 250 253 255 256 256
248 249 252 251 250 255 256 257 261 261 258 255 256 254 248 251 252 252 255 256 256 257 258 258 260 259 257 254 254 251 246 247 249 250 253 252 250 248 247 249 253 256 256 258
247 248 250 250 250 253 256 258 261 259 260 259 255 251 250 252 251 252 256 258 256 255 256 258 260 259 257 253 251 251 249 251 253 255 255 254 253 249 246 248 252 254 256 259
247 248 251 251 250 252 254 256 256 257 260 258 252 247 248 252 253 256 259 258 255 253 253 255 258 258 257 256 253 252 252 253 255 257 258 257 254 250 249 251 254 255 257 258
248 248 249 251 251 250 253 255 255 255 255 253 251 246 246 250 253 254 257 258 255 253 251 255 257 258 260 261 257 255 254 255 257 259 259 258 254 252 252 255 257 258 259 257
246 246 247 250 251 252 250 252 253 251 252 251 250 248 246 248 251 252 253 256 254 251 253 256 258 259 260 261 258 258 258 256 256 256 257 255 255 254 254 255 257 261 260 259
245 243 243 245 248 251 249 248 247 247 248 250 248 247 247 247 248 249 250 253 253 252 255 257 259 261 259 258 256 256 257 255 253 256 258 258 258 256 255 254 258 261 263 263
244 242 241 242 244 247 248 247 246 248 247 248 247 248 249 246 246 247 248 251 253 254 257 258 259 264 263 259 259 257 256 256 257 258 259 260 258 256 258 257 259 261 263 265
242 243 242 242 242 243 246 247 245 245 247 247 247 247 247 246 247 249 250 250 252 254 256 258 259 261 264 264 260 257 257 258 259 259 260 261 261 259 259 261 261 262 263 265
Height
5840 5841 5842 5843 5844 5845 5845 5846 5846 5847 5847 5848 5848 5849 5851 5851 5852 5854 5854 5855 5856 5857 5858 5860 5861 5862 5863 5864 5866 5867 5869 5870 5871 5872 5873 5874 5875 5876 5877 5877 5878 5878 5879 5879
5838 5839 5840 5840 5841 5842 5842 5843 5844 5845 5845 5845 5846 5847 5848 5848 5849 5850 5851 5852 5853 5854 5855 5857 5858 5859 5860 5862 5863 5864 5866 5867 5868 5870 5871 5872 5873 5874 5874 5875 5875 5876 5876 5877
5834 5837 5837 5838 5838 5839 5840 5841 5841 5842 5842 5843 5843 5844 5845 5846 5847 5847 5848 5849 5850 5851 5852 5854 5855 5856 5857 5858 5860 5861 5863 5864 5866 5867 5868 5869 5870 5871 5872 5873 5873 5874 5874 5874
5831 5833 5834 5834 5835 5836 5837 5838 5839 5839 5840 5840 5841 5842 5842 5843 5844 5844 5845 5846 5847 5848 5849 5851 5852 5853 5854 5856 5857 5858 5860 5861 5862 5864 5865 5866 5867 5868 5869 5870 5870 5871 5871 5872
5828 5830 5830 5831 5833 5833 5834 5835 5836 5836 5837 5838 5838 5839 5840 5840 5841 5842 5842 5843 5844 5845 5846 5848 5849 5851 5852 5853 5854 5855 5857 5858 5859 5861 5862 5863 5864 5865 5866 5867 5868 5868 5869 5869
5825 5826 5827 5828 5829 5830 5831 5832 5833 5833 5834 5835 5836 5837 5837 5838 5838 5839 5839 5840 5841 5842 5843 5845 5846 5847 5849 5850 5851 5852 5854 5855 5856 5858 5859 5860 5861 5862 5863 5864 5865 5866 5866 5866
5822 5823 5824 5825 5826 5827 5828 5830 5830 5830 5831 5832 5834 5834 5835 5836 5836 5836 5837 5837 5838 5839 5840 5842 5843 5844 5846 5847 5848 5849 5851 5852 5853 5854 5856 5857 5857 5858 5860 5861 5862 5862 5863 5863
5818 5820 5821 5822 5823 5824 5825 5826 5828 5829 5829 5830 5830 5830 5833 5833 5833 5833 5834 5834 5835 5836 5837 5838 5840 5841 5842 5844 5845 5846 5847 5849 5850 5851 5852 5853 5854 5855 5856 5858 5858 5859 5860 5860
5815 5816 5817 5818 5819 5821 5821 5823 5825 5826 5826 5827 5827 5828 5829 5829 5830 5831 5831 5831 5832 5833 5834 5835 5836 5837 5839 5840 5841 5843 5844 5845 5846 5848 5849 5850 5851 5852 5853 5854 5855 5856 5856 5857
5811 5812 5814 5814 5816 5817 5819 5820 5821 5822 5823 5824 5825 5825 5826 5826 5827 5827 5827 5827 5828 5829 5830 5831 5832 5834 5835 5837 5838 5839 5840 5842 5843 5844 5845 5846 5848 5849 5850 5850 5851 5852 5853 5854
5807 5809 5810 5811 5812 5814 5816 5817 5817 5819 5820 5821 5821 5823 5822 5823 5823 5824 5824 5825 5825 5826 5827 5828 5829 5830 5831 5833 5834 5836 5837 5838 5840 5840 5842 5843 5844 5845 5846 5847 5848 5849 5850 5851
5804 5805 5805 5807 5809 5810 5811 5812 5814 5815 5816 5817 5817 5821 5819 5819 5819 5820 5820 5821 5821 5822 5823 5824 5825 5826 5827 5829 5830 5832 5833 5835 5836 5837 5838 5840 5841 5842 5843 5844 5845 5846 5847 5848
5800 5801 5802 5803 5807 5807 5807 5808 5810 5811 5812 5813 5814 5817 5815 5815 5816 5816 5816 5817 5818 5818 5819 5820 5821 5821 5823 5825 5826 5828 5829 5831 5832 5834 5835 5836 5837 5838 5839 5840 5841 5842 5843 5844
5796 5797 5799 5801 5801 5802 5803 5804 5806 5807 5807 5809 5810 5811 5811 5811 5812 5812 5813 5813 5814 5814 5815 5816 5817 5818 5819 5821 5822 5824 5825 5827 5828 5830 5831 5832 5833 5834 5835 5837 5837 5839 5839 5840
5791 5792 5794 5795 5796 5797 5798 5799 5801 5802 5803 5805 5806 5806 5807 5808 5808 5808 5809 5809 5810 5811 5811 5812 5813 5814 5815 5817 5818 5819 5821 5823 5824 5826 5827 5828 5829 5830 5831 5833 5834 5835 5836 5837
5786 5788 5789 5790 5791 5792 5793 5795 5796 5797 5799 5800 5801 5802 5803 5804 5804 5804 5805 5805 5806 5807 5808 5809 5810 5811 5812 5813 5814 5815 5817 5818 5820 5821 5823 5824 5825 5826 5827 5829 5830 5831 5832 5833
5781 5783 5784 5785 5787 5787 5788 5791 5792 5793 5794 5795 5796 5799 5799 5800 5800 5801 5801 5802 5803 5804 5805 5805 5806 5807 5808 5809 5810 5811 5813 5814 5816 5817 5819 5820 5821 5822 5823 5824 5826 5827 5828 5829
5777 5778 5779 5780 5782 5782 5787 5787 5787 5789 5790 5791 5792 5794 5795 5796 5797 5797 5798 5798 5799 5800 5801 5802 5802 5803 5804 5805 5806 5807 5809 5810 5812 5813 5814 5816 5817 5818 5819 5820 5822 5823 5824 5825
5772 5773 5774 5775 5776 5778 5781 5782 5783 5784 5785 5787 5788 5789 5791 5792 5793 5793 5794 5794 5796 5797 5797 5798 5799 5799 5800 5801 5802 5803 5805 5806 5807 5809 5810 5811 5812 5813 5815 5816 5818 5819 5820 5821
5766 5767 5769 5770 5771 5773 5777 5778 5779 5781 5781 5783 5783 5785 5787 5788 5789 5790 5791 5791 5791 5793 5794 5794 5795 5796 5796 5798 5799 5800 5801 5802 5803 5805 5806 5807 5808 5809 5810 5812 5813 5814 5815 5816
5760 5762 5763 5764 5765 5768 5771 5773 5775 5777 5778 5778 5779 5781 5782 5784 5785 5787 5787 5787 5787 5789 5790 5791 5792 5792 5793 5794 5795 5796 5797 5798 5799 5800 5801 5802 5803 5804 5806 5807 5808 5810 5811 5811
5754 5756 5758 5760 5761 5765 5766 5768 5770 5772 5773 5773 5775 5777 5779 5780 5781 5782 5782 5783 5784 5785 5786 5787 5788 5789 5789 5790 5790 5791 5793 5794 5795 5796 5796 5797 5798 5800 5801 5803 5804 5805 5806 5807
5748 5751 5753 5755 5758 5759 5761 5763 5765 5767 5768 5769 5771 5773 5774 5776 5777 5778 5779 5780 5781 5782 5783 5784 5784 5785 5785 5786 5786 5787 5788 5789 5790 5791 5792 5793 5794 5795 5797 5798 5799 5800 5801 5802
5742 5744 5747 5749 5750 5752 5755 5757 5759 5761 5762 5764 5766 5768 5769 5771 5773 5774 5775 5777 5778 5779 5779 5780 5780 5781 5781 5782 5782 5783 5784 5785 5786 5787 5788 5789 5790 5791 5792 5794 5795 5796 5796 5797
5736 5738 5740 5742 5745 5746 5749 5751 5753 5755 5758 5759 5761 5762 5764 5766 5768 5769 5771 5772 5774 5775 5776 5776 5777 5777 5777 5778 5778 5779 5779 5780 5781 5782 5783 5784 5785 5786 5788 5789 5790 5791 5792 5792
5729 5731 5733 5736 5739 5741 5743 5746 5748 5750 5752 5754 5755 5757 5759 5761 5763 5765 5766 5768 5769 5770 5771 5772 5773 5773 5773 5774 5774 5775 5775 5776 5777 5778 5779 5780 5781 5782 5783 5784 5785 5786 5787 5788